RH
100 99 95 91 88 95 97 98 90 56 54 68 87 97 98 97 97 96 98 97 97 96 96 95 96 97 96 97 95 95 86 98 82 83 80 91 73 53
97 97 98 96 86 77 92 98 97 83 67 80 71 98 97 98 97 98 97 98 98 98 97 98 98 97 95 97 97 96 97 96 85 68 73 74 74 68
97 99 98 97 95 95 98 96 98 98 98 85 95 84 94 93 98 99 96 96 97 95 94 93 82 90 96 98 97 97 97 94 83 94 88 72 64 83
94 99 97 98 96 93 98 98 98 98 98 96 97 94 94 92 82 88 96 98 83 82 99 100 84 83 93 98 97 95 96 97 92 88 85 70 64 91
95 98 98 99 99 92 94 96 97 98 99 98 98 97 98 98 96 97 85 91 84 67 72 91 78 71 60 77 81 83 89 95 92 98 86 92 82 87
96 99 98 97 97 99 97 98 98 98 98 97 98 98 98 98 98 98 99 98 97 94 99 96 86 100 91 84 85 92 95 94 98 98 98 89 89 94
98 95 98 99 97 96 97 98 98 98 98 100 96 97 98 99 98 99 99 98 97 98 97 100 100 100 96 92 88 98 95 86 88 86 80 84 81 77
96 93 89 86 95 97 98 99 98 98 98 98 98 99 99 98 98 99 99 99 98 97 99 99 97 100 100 99 98 100 98 100 98 98 91 90 83 75
100 98 93 93 96 97 96 100 100 99 98 98 97 97 98 98 98 98 99 99 99 98 98 97 98 99 100 100 98 99 100 98 100 99 100 99 98 98
96 97 98 99 97 96 97 98 98 100 99 94 92 97 98 99 100 99 99 100 99 99 100 99 98 98 100 100 100 99 100 100 100 100 100 100 100 100
99 100 100 100 98 94 95 95 98 96 93 90 93 94 89 91 96 99 98 100 100 100 99 98 100 99 100 99 99 100 100 100 100 98 100 99 100 99
95 100 100 100 100 100 99 100 100 100 100 100 99 98 100 100 100 100 99 98 99 99 100 100 100 100 100 100 100 100 100 100 100 99 99 98 97 98
91 89 88 88 85 88 91 95 98 98 97 98 97 96 99 100 100 100 100 100 100 100 100 100 100 100 100 100 100 100 100 100 100 100 100 100 100 99
76 72 71 71 66 58 53 49 38 35 62 54 41 48 65 70 67 76 86 94 99 100 99 100 100 100 100 100 100 100 100 100 100 100 100 100 100 99
59 51 46 44 35 25 22 20 18 19 17 15 14 13 13 14 15 17 17 19 30 57 72 69 66 68 93 97 99 100 100 100 100 100 100 100 100 100
67 63 56 46 41 34 27 24 23 22 20 18 17 15 15 15 14 13 13 12 12 12 12 15 24 40 42 29 33 52 54 60 74 84 94 99 100 100
43 38 32 28 25 20 17 17 15 13 12 10 9 8 9 8 8 10 10 9 9 10 9 8 7 8 12 18 28 26 18 18 18 18 21 23 26 38
48 44 42 38 34 30 26 23 19 16 13 11 9 8 9 12 12 12 11 10 10 10 9 10 11 11 9 8 7 7 11 14 14 14 14 14 17 17
46 41 37 34 30 27 24 23 21 20 17 15 13 14 14 13 12 10 9 9 9 7 6 7 8 7 6 6 6 6 6 5 6 6 8 10 10 11
31 26 21 17 15 14 12 11 9 9 9 8 7 7 6 5 5 5 4 4 4 4 4 4 4 4 4 4 4 4 4 4 4 4 5 5 6 8
12 11 11 11 12 12 12 12 12 12 11 11 11 11 11 11 10 10 9 8 8 7 6 6 6 5 5 5 4 4 5 5 5 4 4 4 4 4
17 17 18 18 18 19 19 18 18 19 17 16 18 17 16 13 12 11 10 9 8 8 8 8 7 7 7 7 7 7 7 7 8 8 7 7 7 6
22 23 25 27 28 28 29 30 28 26 24 24 23 20 16 13 12 11 10 10 9 9 9 10 10 10 10 10 10 9 10 10 11 11 10 10 10 10
Wind_Speed
57 54 55 54 51 48 53 53 51 47 47 53 55 54 60 59 51 47 53 53 55 50 47 43 44 51 48 46 46 48 45 46 42 42 39 43 50 36
63 64 62 61 57 55 61 56 60 53 57 57 58 62 57 63 63 57 59 54 58 55 51 49 50 52 51 50 45 46 46 44 40 43 40 36 39 43
69 56 71 63 60 59 61 59 63 60 57 61 60 63 66 67 68 66 67 64 62 66 64 59 59 54 47 43 43 47 51 45 42 42 39 39 39 43
77 63 61 65 60 62 67 62 63 63 64 67 64 66 70 68 68 66 64 61 64 66 66 64 64 63 59 49 50 51 53 47 48 47 50 48 46 51
82 74 70 66 62 63 73 62 66 66 64 66 66 59 69 63 68 68 75 70 72 73 79 75 66 66 66 65 61 61 61 54 49 52 53 53 53 51
86 78 66 75 71 69 75 68 66 69 69 67 73 74 70 67 71 74 68 70 72 67 64 68 68 70 70 68 62 60 62 58 62 65 59 59 62 61
77 82 85 74 78 82 80 74 68 66 69 66 69 72 69 69 69 71 71 72 76 69 68 69 73 76 76 75 71 68 67 66 67 68 69 70 70 69
66 67 72 76 80 79 83 80 78 77 77 73 75 71 69 69 73 72 75 75 76 76 73 75 75 74 75 74 73 71 71 69 74 72 69 72 74 73
61 65 70 71 71 76 80 83 81 78 74 74 73 74 69 70 71 70 74 80 82 84 88 82 82 79 79 75 76 79 74 77 77 75 75 75 73 75
49 50 52 60 67 71 73 78 82 85 85 86 87 79 78 83 85 75 74 79 78 78 82 85 86 87 83 84 85 86 86 84 84 79 77 77 74 79
44 47 50 53 54 57 61 66 71 73 77 78 78 78 82 89 89 84 87 87 82 77 76 77 83 85 87 89 90 87 93 94 94 92 89 88 87 79
48 47 46 45 45 50 55 56 55 57 59 61 64 66 69 72 77 79 84 86 90 90 87 83 80 77 77 76 79 86 85 87 90 91 90 91 93 87
41 41 42 43 45 45 47 48 49 50 53 57 61 64 64 64 65 69 75 78 81 82 80 80 83 83 84 80 80 80 81 80 81 82 82 83 85 88
45 45 45 46 47 48 48 48 48 48 49 49 50 52 55 57 59 62 65 70 74 74 77 78 76 76 78 80 81 81 81 83 85 89 90 92 93 93
49 51 52 54 55 56 55 56 56 56 57 59 60 60 62 62 63 64 65 66 66 68 71 71 73 75 78 81 80 79 82 85 90 92 93 95 96 97
53 55 56 58 59 61 63 66 67 67 68 69 69 69 70 70 72 73 74 76 76 77 78 79 80 82 84 83 83 84 85 87 88 89 91 94 96 98
58 60 62 63 66 68 70 72 73 73 74 75 76 78 80 80 81 82 83 84 85 86 87 89 91 91 90 91 94 94 94 94 96 98 98 97 96 96
63 65 66 68 71 73 75 77 80 82 84 84 86 86 88 89 90 92 94 93 91 94 96 96 97 98 101 101 101 101 105 106 106 106 107 108 106 105
66 68 70 73 75 77 78 79 81 83 85 86 89 90 93 94 93 94 97 99 101 101 99 102 104 105 106 106 107 109 110 110 110 112 114 114 114 113
65 65 65 65 66 67 68 69 70 72 75 76 78 81 82 82 84 86 87 88 88 89 92 94 95 97 100 101 102 103 106 107 109 111 113 114 115 115
53 54 55 56 56 57 58 59 60 62 64 66 68 69 71 72 74 75 76 79 81 83 84 86 89 91 93 95 97 98 101 103 105 106 107 108 110 111
53 53 54 55 56 57 57 58 59 60 60 61 62 64 66 67 70 71 73 75 77 79 80 83 85 87 90 91 92 94 96 99 102 103 105 106 107 108
55 56 57 57 58 59 61 62 63 64 63 62 63 65 66 67 69 69 70 71 73 73 74 76 78 80 82 84 86 88 89 92 93 94 95 99 101 102
Wind_Direction
225 238 241 232 237 238 236 225 234 226 227 229 228 231 235 237 234 243 246 246 250 255 259 258 257 251 261 261 259 255 251 240 243 254 258 259 247 248
233 232 236 235 230 232 223 227 232 227 229 230 230 230 234 237 246 245 247 253 256 256 256 252 256 257 261 262 256 245 244 246 254 258 252 256 263 263
230 230 230 234 232 229 233 229 234 231 231 232 232 233 236 238 243 244 246 255 251 258 260 261 262 264 261 249 252 253 252 253 256 250 260 264 268 263
236 231 231 230 233 237 233 232 231 236 239 238 234 234 235 236 242 250 252 249 254 254 255 261 260 262 256 254 262 263 254 266 255 258 262 265 265 247
238 240 236 232 231 232 232 238 233 232 233 240 239 239 239 241 243 246 248 247 250 254 256 262 262 263 260 261 262 262 263 269 262 257 261 262 263 257
239 240 248 244 233 234 233 239 238 237 240 240 239 240 241 243 240 244 250 250 253 252 253 256 257 260 263 264 262 260 262 262 254 256 259 260 262 259
243 244 245 248 253 250 244 242 242 243 243 237 240 244 243 242 241 249 249 248 249 247 253 254 255 260 262 263 261 260 258 258 256 254 258 260 259 262
242 244 245 247 247 249 249 252 254 253 245 244 244 245 246 249 250 248 246 246 248 252 250 251 254 255 260 259 262 259 259 258 260 261 259 260 262 262
241 244 245 246 247 248 247 248 245 245 247 249 249 248 246 248 247 250 249 248 247 252 254 254 253 250 249 256 259 262 263 264 263 262 260 266 264 266
243 244 244 244 246 248 248 248 251 252 255 258 253 244 244 250 259 255 255 252 252 252 253 252 252 251 253 255 254 255 258 259 258 259 265 263 264 265
245 246 246 247 248 248 248 248 250 251 254 256 256 257 257 258 261 260 257 257 256 257 255 255 254 255 253 253 254 254 254 255 256 257 260 260 260 260
245 246 247 247 248 249 250 249 250 250 251 252 253 252 251 251 253 252 252 252 253 254 253 254 251 250 250 252 254 254 255 256 257 258 259 259 260 258
246 247 249 251 252 252 252 253 253 253 255 255 254 253 252 250 251 252 254 253 255 254 254 255 256 256 256 257 256 256 258 259 258 257 256 257 259 260
247 249 250 250 252 253 254 253 253 255 255 256 259 260 260 261 262 262 260 257 256 257 257 255 255 256 257 258 258 257 257 257 257 258 260 262 262 263
251 251 251 252 253 254 254 254 254 255 257 257 258 260 261 261 262 263 264 265 266 266 266 265 265 266 266 263 259 258 258 259 258 257 258 258 259 260
259 258 258 258 258 259 259 261 262 262 262 262 263 263 263 264 265 264 266 265 265 266 265 266 267 266 266 264 264 265 266 267 266 264 263 262 261 260
263 263 264 264 265 266 267 267 268 267 267 268 269 267 266 267 267 268 270 270 268 266 265 265 265 264 264 265 264 263 264 265 266 265 266 266 266 266
267 268 268 268 269 269 270 270 271 271 271 271 273 275 273 272 272 272 273 271 270 272 269 267 267 268 265 264 265 264 263 264 264 264 265 265 264 264
267 268 270 272 272 273 274 274 274 274 274 274 275 275 275 275 275 275 276 275 274 272 270 269 268 268 267 266 265 265 263 262 263 263 263 263 263 263
268 270 270 272 273 274 275 275 276 276 276 275 275 274 274 274 273 272 271 270 268 267 266 266 264 264 263 263 263 263 263 263 262 262 261 261 262 262
263 265 268 271 273 274 275 276 277 277 277 276 275 274 273 272 271 270 270 269 268 267 266 265 264 264 263 262 262 262 262 263 264 264 264 265 265 265
263 267 269 271 273 275 277 278 280 281 281 279 277 276 276 275 274 273 271 270 269 268 267 266 265 264 264 264 263 263 262 263 263 264 264 265 266 266
264 267 269 272 274 277 279 281 283 284 285 284 285 285 284 282 280 278 277 275 272 270 269 268 267 267 266 266 266 265 265 265 266 267 267 268 267 267